DW7764 Weather Reports


Display with metric or nautical units.
time (UTC)temp
F
wind
direction
speed
MPH
gust
MPH
rain 1hr
in
rain 24hr
in
rain mn
in
humidity
%
barometer
mb
20260502123025 66 114 2.0 8.0 0.00 0.00 0.00 67 1026.8
20260502121524 67 110 3.0 8.0 0.00 0.00 0.00 63 1026.9
20260502114522 68 158 4.0 9.0 0.00 0.00 0.00 61 1026.8
20260502113020 68 113 0.0 4.0 0.00 0.00 0.00 59 1027.0
20260502111517 68 113 1.0 5.0 0.00 0.00 0.00 61 1027.0
20260502110015 67 29 1.0 4.0 0.00 0.00 0.00 65 1027.1
20260502104511 66 128 1.0 4.0 0.00 0.00 0.00 67 1027.4
20260502103010 65 152 0.0 2.0 0.00 0.00 0.00 66 1027.8
20260502101509 65 153 0.0 3.0 0.00 0.00 0.00 69 1027.8
20260502070054 61 151 0.0 2.0 0.00 0.00 0.00 81 1028.1
20260502064548 61 150 0.0 0.0 0.00 0.00 0.00 82 1028.2
20260502063046 60 150 0.0 1.0 0.00 0.00 0.00 83 1028.0
20260502061545 60 150 0.0 0.0 0.00 0.00 0.00 84 1027.9
20260502060046 60 150 0.0 2.0 0.00 0.00 0.00 83 1028.0
20260502054542 60 150 0.0 0.0 0.00 0.00 0.00 84 1027.8
20260502053044 60 151 0.0 1.0 0.00 0.00 0.00 85 1027.8
20260502051542 60 150 0.0 0.0 0.00 0.00 0.00 86 1027.7
20260502050046 60 150 0.0 0.0 0.00 0.00 0.00 86 1027.7
20260502044549 60 150 0.0 0.0 0.00 0.00 0.00 86 1027.7
20260502043047 60 150 0.0 0.0 0.00 0.00 0.00 86 1027.7
20260502041546 60 150 0.0 1.0 0.00 0.00 0.00 86 1027.6
20260502040039 60 150 0.0 1.0 0.00 0.00 0.00 85 1027.6
20260502034540 60 150 0.0 1.0 0.00 0.00 0.00 84 1027.6
20260502033040 60 149 0.0 2.0 0.00 0.00 0.00 84 1027.5
20260502031537 60 149 0.0 3.0 0.00 0.00 0.00 84 1027.6
20260502030038 60 116 0.0 2.0 0.00 0.00 0.00 84 1027.6
20260502024539 61 115 0.0 3.0 0.00 0.00 0.00 84 1027.8
20260502023033 61 134 0.0 2.0 0.00 0.00 0.00 84 1027.8
20260502021532 61 134 0.0 2.0 0.00 0.00 0.00 85 1027.9
20260502020030 60 19 0.0 1.0 0.00 0.00 0.00 84 1027.8
20260502014547 60 19 0.0 2.0 0.00 0.00 0.00 84 1027.9
20260502013030 60 19 0.0 0.0 0.00 0.00 0.00 85 1027.9
20260502011527 60 19 0.0 2.0 0.00 0.00 0.00 85 1028.1
20260502010025 60 20 0.0 0.0 0.00 0.00 0.00 84 1028.3
20260502004523 60 20 0.0 2.0 0.00 0.00 0.00 80 1028.4
20260502003021 60 20 0.0 2.0 0.00 0.00 0.00 80 1028.6
20260502001521 60 20 0.0 2.0 0.00 0.00 0.00 80 1028.8
20260502000038 60 20 0.0 1.0 0.00 0.00 0.00 80 1028.9
20260501234519 60 20 0.0 0.0 0.00 0.00 0.00 80 1029.0
20260501233019 60 20 0.0 3.0 0.00 0.00 0.00 80 1029.1
20260501231523 60 17 0.0 2.0 0.00 0.00 0.00 79 1029.1
20260501230020 60 347 0.0 5.0 0.00 0.00 0.00 80 1029.1
20260501224514 60 126 0.0 1.0 0.00 0.00 0.00 83 1029.1
20260501223013 60 125 0.0 1.0 0.00 0.00 0.00 84 1029.0
20260501221519 60 126 0.0 1.0 0.00 0.00 0.00 85 1028.9
20260501220014 60 126 0.0 2.0 0.00 0.00 0.00 86 1028.9
20260501214512 60 126 0.0 0.0 0.00 0.00 0.00 86 1028.9
20260501213008 60 125 0.0 0.0 0.00 0.00 0.00 86 1029.1
20260501211508 60 125 0.0 0.0 0.00 0.00 0.00 86 1029.0
20260501210008 60 126 0.0 1.0 0.00 0.00 0.00 86 1029.0
20260501204506 60 125 0.0 0.0 0.00 0.00 0.00 87 1029.0
20260501203007 60 126 0.0 1.0 0.00 0.00 0.00 87 1029.0
20260501201504 60 110 0.0 1.0 0.00 0.00 0.00 87 1028.8
20260501200003 60 110 0.0 4.0 0.00 0.00 0.00 88 1028.7
20260501194601 60 155 0.0 4.0 0.00 0.00 0.00 89 1028.6
20260501193102 60 146 2.0 6.0 0.00 0.00 0.00 89 1028.4
20260501191556 61 135 2.0 7.0 0.00 0.00 0.00 87 1028.2
20260501190056 61 203 1.0 4.0 0.00 0.00 0.00 86 1028.0
20260501184556 61 138 1.0 10.0 0.00 0.00 0.00 85 1027.8
20260501183056 62 104 2.0 6.0 0.00 0.00 0.00 84 1027.6
20260501181550 62 119 5.0 8.0 0.00 0.00 0.00 82 1027.4
20260501180049 63 131 2.0 8.0 0.00 0.00 0.00 81 1027.1
20260501174548 63 86 1.0 8.0 0.00 0.00 0.00 79 1026.9
20260501173045 64 112 1.0 8.0 0.00 0.00 0.00 78 1026.9
20260501171548 64 134 1.0 8.0 0.00 0.00 0.00 76 1026.8
20260501170052 64 133 2.0 9.0 0.00 0.00 0.00 74 1026.8
20260501164545 65 121 5.0 10.0 0.00 0.00 0.00 72 1026.7
20260501163044 65 148 2.0 9.0 0.00 0.00 0.00 69 1026.7
20260501161544 65 109 4.0 8.0 0.00 0.00 0.00 67 1026.7
20260501160043 66 133 3.0 10.0 0.00 0.00 0.00 68 1026.7
20260501154551 67 142 3.0 9.0 0.00 0.00 0.00 66 1026.7
20260501153041 66 125 1.0 8.0 0.00 0.00 0.00 67 1026.6
20260501151543 67 110 5.0 13.0 0.00 0.00 0.00 64 1026.6
20260501150040 67 96 4.0 14.0 0.00 0.00 0.00 63 1026.5
20260501144541 67 94 6.0 13.0 0.00 0.00 0.00 64 1026.4
20260501143041 68 174 6.0 14.0 0.00 0.00 0.00 63 1026.5